This is the latest recevied weather packets stored in our database for station/object YC0TBU-4. If no packets are shown the sender has not sent any weather packets the latest 10 day(s).
| Time | Temp. | Humidity | Pressure | Rain* | Wind** | Luminosity | Snow |
|---|---|---|---|---|---|---|---|
| 1787687352 | 27.78° C | 44% | 1015.1 hPa | - | - | - | - |
| 1787685520 | 27.22° C | 45% | 1015.1 hPa | - | - | - | - |
| 1787683720 | 27.22° C | 44% | 1015.4 hPa | - | - | - | - |
| 1787681920 | 27.78° C | 44% | 1015.5 hPa | - | - | - | - |
| 1787680104 | 27.78° C | 44% | 1015.6 hPa | - | - | - | - |
| 1787678304 | 27.78° C | 44% | 1015.7 hPa | - | - | - | - |
| 1787676504 | 27.78° C | 44% | 1015.8 hPa | - | - | - | - |
| 1787674704 | 27.78° C | 43% | 1015.9 hPa | - | - | - | - |
| 1787672904 | 27.78° C | 43% | 1015.7 hPa | - | - | - | - |
| 1787671104 | 28.33° C | 42% | 1015.6 hPa | - | - | - | - |
| 1787669287 | 28.33° C | 42% | 1015.5 hPa | - | - | - | - |
| 1787667487 | 28.33° C | 41% | 1015.4 hPa | - | - | - | - |
| 1787665687 | 28.33° C | 39% | 1015.2 hPa | - | - | - | - |
| 1787663887 | 28.89° C | 38% | 1014.9 hPa | - | - | - | - |
| 1787662087 | 28.33° C | 38% | 1014.6 hPa | - | - | - | - |
| 1787660287 | 28.33° C | 38% | 1014.1 hPa | - | - | - | - |
| 1787658487 | 28.89° C | 37% | 1013.7 hPa | - | - | - | - |
| 1787656687 | 28.89° C | 37% | 1013.4 hPa | - | - | - | - |
| 1787654887 | 30.56° C | 36% | 1013.1 hPa | - | - | - | - |
| 1787653087 | 30.56° C | 35% | 1012.9 hPa | - | - | - | - |
| 1787651287 | 31.11° C | 34% | 1012.6 hPa | - | - | - | - |
| 1787649487 | 31.11° C | 34% | 1012.5 hPa | - | - | - | - |
| 1787647687 | 32.22° C | 34% | 1012.4 hPa | - | - | - | - |
| 1787645887 | 32.22° C | 34% | 1012.4 hPa | - | - | - | - |
| 1787644087 | 31.67° C | 34% | 1012.6 hPa | - | - | - | - |
* Rain since midnight (hover to see other rain measurements)
** Current wind speed in m/s (hover to see current wind gust speed)